{"data":{"norad_id":59385,"epoch":"2026-05-24T17:56:48.785568Z","epoch_age_seconds":107031,"freshness":"FRESH","line1":"1 59385U 24062M   26144.74778687  .00063985  00000+0  21227-2 0  9991","line2":"2 59385  53.1607 262.5632 0001116 109.0158 251.0964 15.30672998121307","mean_motion":15.30672998,"eccentricity":0.0001116,"inclination_deg":53.1607,"raan_deg":262.5632,"arg_perigee_deg":109.0158,"mean_anomaly_deg":251.0964,"bstar":0.0021227,"rev_number":12130,"period_min":94.076265922344,"perigee_km":473.03846982119,"apogee_km":474.56782286186,"semimajor_km":6851.9401463415,"source":"CELESTRAK","updated_at":"2026-05-25T13:38:18.933889Z"}}